[Iaude] MPEC V76: 2023 VD2 [a=1.87,e=0.48,i=0.7,H=30.0]
    mpec at marsden.cfa.harvard.edu 
    mpec at marsden.cfa.harvard.edu
       
    Mon Nov  6 18:28:42 EST 2023
    
    
  
M.P.E.C. 2023-V76                              Issued 2023 November 6, 23:27 UT
     The Minor Planet Electronic Circulars contain information on unusual
         minor planets, routine data on comets and natural satellites,
         and occasional editorial announcements.  They are published
    on behalf of Division F of the International Astronomical Union by the
          Minor Planet Center, Smithsonian Astrophysical Observatory,
                          Cambridge, MA 02138, U.S.A.
			  
             Prepared using the Tamkin Foundation Computer Network
                              MPC at CFA.HARVARD.EDU
            URL https://www.minorplanetcenter.net/    ISSN 1523-6714
                                    2023 VD2                                    
Observations:
     K23V02D*1C2023 11 06.18257423 15 14.137+02 44 15.11         20.16GVEV076G96
     K23V02D 1C2023 11 06.18779123 15 12.006+02 45 07.96         20.27GVEV076G96
     K23V02D 1C2023 11 06.19300823 15 09.932+02 46 01.06         20.43GVEV076G96
     K23V02D 1C2023 11 06.19821023 15 07.895+02 46 54.91         20.49GVEV076G96
     K23V02D KC2023 11 06.26406723 14 43.519+02 58 48.25         20.52GVEV076I52
     K23V02D KC2023 11 06.26534123 14 43.102+02 59 02.87         19.85GVEV076I52
     K23V02D KC2023 11 06.26661623 14 42.702+02 59 17.27         20.59GVEV076I52
     K23V02D KC2023 11 06.26789623 14 42.274+02 59 31.49         20.27GVEV076I52
     K23V02D KB2023 11 06.78914 23 18 42.35 +05 43 02.6          18.8 GXEV076K19
     K23V02D KB2023 11 06.79291 23 18 41.26 +05 45 08.0          19.4 GXEV076K19
     K23V02D KB2023 11 06.79673 23 18 40.04 +05 47 15.3          19.1 GXEV076K19
     K23V02D 1B2023 11 06.81421 23 18 05.11 +06 49 34.7          19.2 VZEV076M49
     K23V02D 1B2023 11 06.81858 23 18 02.43 +06 52 26.0          19.7 VZEV076M49
     K23V02D 1B2023 11 06.82289 23 17 59.74 +06 55 16.0          19.7 VZEV076M49
     K23V02D 1B2023 11 06.82709 23 17 57.06 +06 58 04.2          19.3 VZEV076M49
     K23V02D KC2023 11 06.85255 23 17 40.51 +06 18 21.1          19.3 VqEV076L04
     K23V02D KC2023 11 06.86828 23 17 36.03 +06 28 29.4          19.3 VqEV076L04
     K23V02D KC2023 11 06.87299 23 17 34.81 +06 31 36.2          19.0 VqEV076L04
     K23V02D KB2023 11 06.94309623 20 13.185+08 28 22.80         19.1 VZEV076Y05
     K23V02D KB2023 11 06.94558323 20 11.827+08 30 46.54         18.7 VZEV076Y05
     K23V02D KB2023 11 06.94803223 20 10.399+08 33 10.21         19.6 VZEV076Y05
Observer details:
G96 Mt. Lemmon Survey.  Observer J. B. Fazekas.  Measurers E. C. Beshore, D.
    Fay, J. B. Fazekas, D. C. Fuls, A. R. Gibbs, A. D. Grauer, H. Groeller, J.
    K. Hogan, R. A. Kowalski, S. M. Larson, G. J. Leonard, D. Rankin, R. L.
    Seaman, F. C. Shelly, K. W. Wierzchos.  1.5-m reflector + 10K CCD.
I52 Steward Observatory, Mt. Lemmon Station.  Observer R. A. Kowalski.
    Measurers E. C. Beshore, D. Fay, J. B. Fazekas, D. C. Fuls, A. R. Gibbs,
    A. D. Grauer, H. Groeller, J. K. Hogan, R. A. Kowalski, S. M. Larson, G.
    J. Leonard, D. Rankin, R. L. Seaman, F. C. Shelly, K. W. Wierzchos.  1.0-m
    prime focus + CCD.
K19 PASTIS Observatory, Banon.  Observer C. Demeautis.  0.28-m f/2.2 reflector
    + CMO.
L04 ROASTERR-1 Observatory, Cluj-Napoca.  Observer L. Hudin.  0.3-m f/5
    reflector + CCD.
M49 IAS Remote Observatory, Hakos.  Observers D. Husar, M. Junius.  Measurer
    M. Junius.  0.25-m f/4.5 reflector + CMO.
Y05 SONEAR Wykrota-CEAMIG, Serra da Piedade.  Observer C. Jacques.  0.45-m
    f/2.9 reflector + CMO.
Orbital elements:
2023 VD2                                                 Earth MOID = 0.0004 AU
Epoch 2023 Sept. 13.0 TT = JDT 2460200.5                Veres                   
M 331.89048              (2000.0)            P               Q                  
n   0.38495615     Peri.  200.21074     +0.40384287     -0.91478297             
a   1.8715232      Node   225.97187     +0.84107080     +0.37518356             
e   0.4824409      Incl.    0.72624     +0.35987615     +0.14969773             
P   2.56           H   30.05          G   0.15           U   6                  
Residuals in seconds of arc
231106 G96  0.0   0.7+    231106 I52  0.2-  0.2-    231106 M49  0.7-  0.4+
231106 G96  0.5-  0.2+    231106 K19  0.2-  0.4-    231106 L04  0.3-  0.8-
231106 G96  0.1-  0.4-    231106 K19  0.2+  0.5+    231106 L04  0.3+  0.1+
231106 G96  0.6+  0.5-    231106 K19  0.7-  0.6+    231106 L04  0.8+  0.1+
231106 I52  0.1+  0.1-    231106 M49  0.6-  0.1+    231106 Y05  0.5-  0.1-
231106 I52  0.0   0.2+    231106 M49  0.0   0.4+    231106 Y05  0.1+  0.3-
231106 I52  0.1+  0.1+    231106 M49  0.0   0.0     231106 Y05  0.3-  0.6+
Ephemeris:
2023 VD2                 a,e,i = 1.87, 0.48, 1                   q = 0.9686
Date    TT    R. A. (2000) Decl.     Delta      r    Elong.  Phase     V
2023 10 07    23 25 53.8 +00 06 46   0.1363  1.1278   158.8    18.7    26.9
...
2023 10 22    23 16 16.6 -00 31 10   0.06928 1.0506   141.6    36.1    25.8
...
2023 10 30    23 13 38.0 -00 26 36   0.03570 1.0179   133.1    45.5    24.6
...
2023 11 05    23 14 00.8 +01 02 47   0.01069 0.9983   127.7    51.9    22.1
2023 11 06    23 15 07.2 +02 27 46   0.0065170.9954   127.4    52.3    21.0
2023 11 07    23 20 26.7 +08 56 45   0.0023380.9927   129.4    50.5    18.8
...
2023 11 13    11 22 55.8 -11 19 13   0.02284 0.9770    55.2   123.7    26.9
...
2023 11 21    11 25 37.8 -12 03 32   0.05594 0.9631    62.1   115.0    28.2
...
2023 12 06    11 34 01.8 -12 51 07   0.1162  0.9610    74.5    98.8    28.9
M. P. C. Staff               (C) Copyright 2023 MPC           M.P.E.C. 2023-V76
    
    
More information about the Iaude
mailing list